| time (UTC) | temp F | wind direction | speed MPH | gust MPH | rain 1hr in | rain 24hr in | rain mn in | humidity % | barometer mb |
| 20260904092201 | 59 | 288 | 0.0 | 0.0 | 0.00 | 0.00 | 0.00 | 51 | 1013.9 |
| 20260904091358 | 59 | 227 | 0.0 | 0.0 | 0.00 | 0.00 | 0.00 | 50 | 1013.9 |
| 20260904090957 | 59 | 292 | 0.0 | 0.0 | 0.00 | 0.00 | 0.00 | 50 | 1013.8 |
| 20260904090556 | 59 | 335 | 0.0 | 0.0 | 0.00 | 0.00 | 0.00 | 50 | 1013.8 |
| 20260904090155 | 59 | 306 | 0.0 | 0.0 | 0.00 | 0.00 | 0.00 | 50 | 1013.9 |
| 20260904085754 | 59 | 274 | 0.0 | 1.0 | 0.00 | 0.00 | 0.00 | 50 | 1013.9 |
| 20260904085352 | 59 | 279 | 0.0 | 0.0 | 0.00 | 0.00 | 0.00 | 50 | 1014.0 |
| 20260904084950 | 59 | 301 | 0.0 | 0.0 | 0.00 | 0.00 | 0.00 | 50 | 1013.9 |
| 20260904084549 | 59 | 294 | 0.0 | 0.0 | 0.00 | 0.00 | 0.00 | 50 | 1014.1 |
| 20260904084148 | 60 | 297 | 0.0 | 0.0 | 0.00 | 0.00 | 0.00 | 50 | 1014.1 |
| 20260904083747 | 60 | 184 | 0.0 | 0.0 | 0.00 | 0.00 | 0.00 | 50 | 1014.1 |
| 20260904082945 | 60 | 294 | 0.0 | 0.0 | 0.00 | 0.00 | 0.00 | 50 | 1014.1 |
| 20260904082544 | 60 | 292 | 0.0 | 0.0 | 0.00 | 0.00 | 0.00 | 50 | 1014.0 |
| 20260904082142 | 60 | 306 | 0.0 | 0.0 | 0.00 | 0.00 | 0.00 | 49 | 1014.1 |
| 20260904081741 | 60 | 38 | 0.0 | 0.0 | 0.00 | 0.00 | 0.00 | 49 | 1014.2 |
| 20260904081339 | 60 | 42 | 0.0 | 0.0 | 0.00 | 0.00 | 0.00 | 49 | 1014.2 |
| 20260904080938 | 61 | 344 | 0.0 | 0.0 | 0.00 | 0.00 | 0.00 | 49 | 1014.3 |
| 20260904080537 | 61 | 337 | 0.0 | 0.0 | 0.00 | 0.00 | 0.00 | 49 | 1014.3 |
| 20260904075333 | 61 | 42 | 0.0 | 0.0 | 0.00 | 0.00 | 0.00 | 49 | 1014.4 |
| 20260904074932 | 61 | 36 | 0.0 | 0.0 | 0.00 | 0.00 | 0.00 | 49 | 1014.4 |
| 20260904074531 | 61 | 40 | 0.0 | 0.0 | 0.00 | 0.00 | 0.00 | 49 | 1014.4 |
| 20260904074129 | 61 | 45 | 0.0 | 0.0 | 0.00 | 0.00 | 0.00 | 48 | 1014.4 |
| 20260904073727 | 61 | 87 | 0.0 | 0.0 | 0.00 | 0.00 | 0.00 | 48 | 1014.3 |
| 20260904073326 | 61 | 85 | 0.0 | 0.0 | 0.00 | 0.00 | 0.00 | 48 | 1014.3 |
| 20260904072925 | 62 | 139 | 0.0 | 0.0 | 0.00 | 0.00 | 0.00 | 48 | 1014.3 |
| 20260904071722 | 62 | 274 | 0.0 | 0.0 | 0.00 | 0.00 | 0.00 | 48 | 1014.2 |
| 20260904071320 | 62 | 288 | 0.0 | 0.0 | 0.00 | 0.00 | 0.00 | 48 | 1014.1 |
| 20260904070517 | 62 | 288 | 0.0 | 0.0 | 0.00 | 0.00 | 0.00 | 48 | 1014.1 |
| 20260904070119 | 62 | 279 | 0.0 | 0.0 | 0.00 | 0.00 | 0.00 | 48 | 1014.1 |
| 20260904064912 | 63 | 299 | 0.0 | 0.0 | 0.00 | 0.00 | 0.00 | 47 | 1014.1 |
| 20260904064110 | 63 | 137 | 0.0 | 0.0 | 0.00 | 0.00 | 0.00 | 47 | 1014.0 |
| 20260904063709 | 63 | 135 | 0.0 | 0.0 | 0.00 | 0.00 | 0.00 | 47 | 1014.0 |
| 20260904063308 | 64 | 137 | 0.0 | 0.0 | 0.00 | 0.00 | 0.00 | 47 | 1014.0 |
| 20260904062103 | 64 | 141 | 0.0 | 0.0 | 0.00 | 0.00 | 0.00 | 47 | 1014.0 |
| 20260904060904 | 64 | 135 | 1.0 | 1.0 | 0.00 | 0.00 | 0.00 | 47 | 1013.9 |
| 20260904060459 | 64 | 137 | 1.0 | 1.0 | 0.00 | 0.00 | 0.00 | 47 | 1013.9 |
| 20260904060057 | 64 | 135 | 1.0 | 1.0 | 0.00 | 0.00 | 0.00 | 46 | 1013.9 |
| 20260904055655 | 64 | 83 | 0.0 | 1.0 | 0.00 | 0.00 | 0.00 | 46 | 1013.9 |
| 20260904055254 | 64 | 135 | 1.0 | 1.0 | 0.00 | 0.00 | 0.00 | 46 | 1013.9 |
| 20260904054853 | 64 | 330 | 0.0 | 0.0 | 0.00 | 0.00 | 0.00 | 46 | 1013.9 |
| 20260904054452 | 64 | 326 | 0.0 | 0.0 | 0.00 | 0.00 | 0.00 | 46 | 1014.0 |
| 20260904054051 | 64 | 328 | 0.0 | 1.0 | 0.00 | 0.00 | 0.00 | 46 | 1014.0 |
| 20260904053651 | 65 | 337 | 0.0 | 0.0 | 0.00 | 0.00 | 0.00 | 46 | 1014.0 |
| 20260904053248 | 65 | 274 | 0.0 | 0.0 | 0.00 | 0.00 | 0.00 | 46 | 1013.9 |
| 20260904052847 | 65 | 279 | 0.0 | 0.0 | 0.00 | 0.00 | 0.00 | 46 | 1013.9 |
| 20260904052446 | 65 | 330 | 0.0 | 0.0 | 0.00 | 0.00 | 0.00 | 46 | 1013.9 |
| 20260904052044 | 65 | 330 | 0.0 | 0.0 | 0.00 | 0.00 | 0.00 | 45 | 1014.0 |
| 20260904051241 | 66 | 328 | 0.0 | 1.0 | 0.00 | 0.00 | 0.00 | 45 | 1014.0 |
| 20260904050038 | 66 | 283 | 0.0 | 1.0 | 0.00 | 0.00 | 0.00 | 45 | 1014.0 |
| 20260904045637 | 66 | 290 | 0.0 | 0.0 | 0.00 | 0.00 | 0.00 | 45 | 1014.1 |
| 20260904045236 | 66 | 308 | 0.0 | 0.0 | 0.00 | 0.00 | 0.00 | 44 | 1013.9 |
| 20260904044433 | 67 | 306 | 0.0 | 0.0 | 0.00 | 0.00 | 0.00 | 44 | 1014.0 |
| 20260904043630 | 67 | 135 | 0.0 | 1.0 | 0.00 | 0.00 | 0.00 | 44 | 1013.9 |
| 20260904043229 | 67 | 137 | 1.0 | 1.0 | 0.00 | 0.00 | 0.00 | 44 | 1013.8 |
| 20260904042828 | 67 | 137 | 1.0 | 2.0 | 0.00 | 0.00 | 0.00 | 44 | 1013.8 |
| 20260904042426 | 67 | 236 | 0.0 | 1.0 | 0.00 | 0.00 | 0.00 | 43 | 1013.9 |
| 20260904041624 | 67 | 232 | 0.0 | 1.0 | 0.00 | 0.00 | 0.00 | 43 | 1013.8 |
| 20260904041222 | 67 | 135 | 0.0 | 1.0 | 0.00 | 0.00 | 0.00 | 43 | 1013.8 |
| 20260904035617 | 68 | 137 | 0.0 | 2.0 | 0.00 | 0.00 | 0.00 | 42 | 1013.6 |
| 20260904035216 | 68 | 135 | 0.0 | 1.0 | 0.00 | 0.00 | 0.00 | 42 | 1013.5 |
| 20260904034815 | 68 | 189 | 0.0 | 1.0 | 0.00 | 0.00 | 0.00 | 41 | 1013.6 |
| 20260904034415 | 68 | 135 | 1.0 | 1.0 | 0.00 | 0.00 | 0.00 | 41 | 1013.5 |
| 20260904033611 | 68 | 135 | 1.0 | 1.0 | 0.00 | 0.00 | 0.00 | 41 | 1013.3 |
| 20260904032808 | 68 | 78 | 1.0 | 1.0 | 0.00 | 0.00 | 0.00 | 41 | 1013.3 |
| 20260904032407 | 68 | 135 | 1.0 | 2.0 | 0.00 | 0.00 | 0.00 | 40 | 1013.2 |
| 20260904031605 | 69 | 137 | 3.0 | 4.0 | 0.00 | 0.00 | 0.00 | 40 | 1013.3 |
| 20260904031206 | 69 | 135 | 4.0 | 4.0 | 0.00 | 0.00 | 0.00 | 39 | 1013.2 |
| 20260904030803 | 69 | 135 | 3.0 | 5.0 | 0.00 | 0.00 | 0.00 | 39 | 1013.1 |
| 20260904030401 | 69 | 144 | 4.0 | 5.0 | 0.00 | 0.00 | 0.00 | 39 | 1013.1 |
| 20260904025559 | 70 | 137 | 5.0 | 6.0 | 0.00 | 0.00 | 0.00 | 38 | 1013.0 |
| 20260904025158 | 70 | 139 | 5.0 | 6.0 | 0.00 | 0.00 | 0.00 | 38 | 1013.0 |
| 20260904024355 | 71 | 135 | 5.0 | 7.0 | 0.00 | 0.00 | 0.00 | 37 | 1013.0 |
| 20260904023552 | 71 | 139 | 5.0 | 7.0 | 0.00 | 0.00 | 0.00 | 36 | 1013.0 |
| 20260904023151 | 71 | 139 | 6.0 | 7.0 | 0.00 | 0.00 | 0.00 | 36 | 1012.9 |
| 20260904022749 | 72 | 137 | 6.0 | 7.0 | 0.00 | 0.00 | 0.00 | 35 | 1012.9 |
| 20260904022347 | 72 | 132 | 6.0 | 6.0 | 0.00 | 0.00 | 0.00 | 35 | 1012.8 |
| 20260904021138 | 73 | 130 | 5.0 | 7.0 | 0.00 | 0.00 | 0.00 | 33 | 1012.8 |
| 20260904020335 | 74 | 132 | 5.0 | 7.0 | 0.00 | 0.00 | 0.00 | 32 | 1012.8 |
| 20260904015934 | 75 | 112 | 4.0 | 8.0 | 0.00 | 0.00 | 0.00 | 32 | 1012.8 |
| 20260904015533 | 76 | 150 | 5.0 | 7.0 | 0.00 | 0.00 | 0.00 | 32 | 1012.9 |
| 20260904015131 | 76 | 166 | 3.0 | 7.0 | 0.00 | 0.00 | 0.00 | 31 | 1012.9 |
| 20260904014730 | 76 | 135 | 6.0 | 7.0 | 0.00 | 0.00 | 0.00 | 31 | 1012.8 |
| 20260904014329 | 76 | 137 | 6.0 | 8.0 | 0.00 | 0.00 | 0.00 | 30 | 1012.9 |
| 20260904013929 | 77 | 139 | 6.0 | 8.0 | 0.00 | 0.00 | 0.00 | 30 | |
| 20260904013526 | 77 | 135 | 7.0 | 9.0 | 0.00 | 0.00 | 0.00 | 29 | 1012.9 |
| 20260904013125 | 79 | 139 | 5.0 | 7.0 | 0.00 | 0.00 | 0.00 | 29 | 1012.8 |
| 20260904012724 | 79 | 168 | 2.0 | 6.0 | 0.00 | 0.00 | 0.00 | 29 | 1012.8 |
| 20260904012323 | 79 | 177 | 4.0 | 9.0 | 0.00 | 0.00 | 0.00 | 28 | 1012.8 |
| 20260904011921 | 80 | 189 | 4.0 | 9.0 | 0.00 | 0.00 | 0.00 | 28 | 1012.8 |
| 20260904011522 | 81 | 160 | 5.0 | 7.0 | 0.00 | 0.00 | 0.00 | 28 | 1012.9 |
| 20260904010316 | 83 | 160 | 4.0 | 8.0 | 0.00 | 0.00 | 0.00 | 27 | 1012.9 |
| 20260904005917 | 84 | 182 | 6.0 | 9.0 | 0.00 | 0.00 | 0.00 | 27 | 1012.8 |
| 20260904005515 | 84 | 180 | 4.0 | 7.0 | 0.00 | 0.00 | 0.00 | 27 | 1012.9 |
| 20260904005113 | 84 | 171 | 4.0 | 6.0 | 0.00 | 0.00 | 0.00 | 27 | 1013.0 |
| 20260904004711 | 84 | 173 | 6.0 | 9.0 | 0.00 | 0.00 | 0.00 | 27 | 1012.9 |
| 20260904004309 | 85 | 185 | 4.0 | 6.0 | 0.00 | 0.00 | 0.00 | 27 | 1012.9 |
| 20260904003909 | 84 | 173 | 4.0 | 7.0 | 0.00 | 0.00 | 0.00 | 26 | 1012.9 |
| 20260904003106 | 84 | 182 | 7.0 | 10.0 | 0.00 | 0.00 | 0.00 | 26 | 1013.0 |
| 20260904001902 | 84 | 150 | 6.0 | 10.0 | 0.00 | 0.00 | 0.00 | 27 | 1013.0 |
| 20260904001501 | 84 | 180 | 6.0 | 8.0 | 0.00 | 0.00 | 0.00 | 27 | 1013.0 |
| 20260904001059 | 85 | 159 | 5.0 | 8.0 | 0.00 | 0.00 | 0.00 | 27 | 1013.1 |
| 20260904000658 | 85 | 168 | 4.0 | 7.0 | 0.00 | 0.00 | 0.00 | 26 | 1013.1 |
| 20260904000257 | 85 | 144 | 3.0 | 9.0 | 0.00 | 0.00 | 0.00 | 26 | 1013.2 |
| 20260903235855 | 85 | 175 | 5.0 | 9.0 | 0.00 | 0.00 | 0.00 | 27 | 1013.2 |
| 20260903235454 | 86 | 195 | 5.0 | 8.0 | 0.00 | 0.00 | 0.00 | 27 | 1013.1 |
| 20260903235056 | 86 | 180 | 7.0 | 10.0 | 0.00 | 0.00 | 0.00 | 26 | 1013.1 |
| 20260903234251 | 86 | 173 | 6.0 | 10.0 | 0.00 | 0.00 | 0.00 | 26 | 1013.2 |
| 20260903233849 | 87 | 173 | 4.0 | 10.0 | 0.00 | 0.00 | 0.00 | 26 | 1013.2 |
| 20260903233447 | 88 | 112 | 4.0 | 11.0 | 0.00 | 0.00 | 0.00 | 26 | 1013.2 |
| 20260903233046 | 88 | 180 | 11.0 | 11.0 | 0.00 | 0.00 | 0.00 | 26 | 1013.2 |
| 20260903232645 | 88 | 191 | 8.0 | 9.0 | 0.00 | 0.00 | 0.00 | 26 | 1013.3 |
| 20260903232244 | 89 | 199 | 5.0 | 11.0 | 0.00 | 0.00 | 0.00 | 26 | 1013.3 |
| 20260903231843 | 89 | 155 | 4.0 | 10.0 | 0.00 | 0.00 | 0.00 | 26 | 1013.4 |
| 20260903231040 | 89 | 166 | 5.0 | 9.0 | 0.00 | 0.00 | 0.00 | 26 | 1013.4 |
| 20260903230639 | 90 | 184 | 4.0 | 8.0 | 0.00 | 0.00 | 0.00 | 26 | 1013.5 |
| 20260903230238 | 90 | 211 | 6.0 | 9.0 | 0.00 | 0.00 | 0.00 | 26 | 1013.5 |
| 20260903225837 | 89 | 184 | 6.0 | 10.0 | 0.00 | 0.00 | 0.00 | 26 | 1013.6 |
| 20260903225435 | 89 | 180 | 4.0 | 9.0 | 0.00 | 0.00 | 0.00 | 26 | 1013.5 |
| 20260903225034 | 89 | 197 | 6.0 | 12.0 | 0.00 | 0.00 | 0.00 | 26 | 1013.6 |
| 20260903224632 | 90 | 177 | 7.0 | 9.0 | 0.00 | 0.00 | 0.00 | 26 | 1013.6 |
| 20260903224231 | 90 | 176 | 8.0 | 15.0 | 0.00 | 0.00 | 0.00 | 26 | 1013.6 |
| 20260903223830 | 90 | 75 | 2.0 | 9.0 | 0.00 | 0.00 | 0.00 | 26 | 1013.6 |
| 20260903223428 | 89 | 131 | 3.0 | 9.0 | 0.00 | 0.00 | 0.00 | 26 | 1013.7 |
| 20260903223028 | 90 | 160 | 6.0 | 8.0 | 0.00 | 0.00 | 0.00 | 26 | 1013.8 |
| 20260903222626 | 90 | 196 | 4.0 | 10.0 | 0.00 | 0.00 | 0.00 | 26 | 1013.9 |
| 20260903222226 | 90 | 168 | 5.0 | 8.0 | 0.00 | 0.00 | 0.00 | 26 | 1013.9 |
| 20260903221823 | 91 | 162 | 6.0 | 10.0 | 0.00 | 0.00 | 0.00 | 25 | 1013.9 |
| 20260903221422 | 91 | 193 | 10.0 | 10.0 | 0.00 | 0.00 | 0.00 | 25 | 1013.9 |
| 20260903220620 | 91 | 173 | 4.0 | 9.0 | 0.00 | 0.00 | 0.00 | 25 | 1014.1 |
| 20260903220221 | 91 | 182 | 6.0 | 11.0 | 0.00 | 0.00 | 0.00 | 25 | 1014.1 |
| 20260903215014 | 92 | 202 | 1.0 | 7.0 | 0.00 | 0.00 | 0.00 | 25 | 1014.2 |
| 20260903214613 | 92 | 205 | 7.0 | 9.0 | 0.00 | 0.00 | 0.00 | 25 | 1014.3 |
| 20260903214212 | 91 | 106 | 3.0 | 7.0 | 0.00 | 0.00 | 0.00 | 25 | 1014.2 |
| 20260903213811 | 91 | 69 | 1.0 | 10.0 | 0.00 | 0.00 | 0.00 | 25 | 1014.2 |
| 20260903213008 | 90 | 148 | 7.0 | 11.0 | 0.00 | 0.00 | 0.00 | 25 | 1014.3 |
| 20260903212608 | 91 | 189 | 8.0 | 12.0 | 0.00 | 0.00 | 0.00 | 25 | 1014.4 |
| 20260903211001 | 90 | 106 | 6.0 | 6.0 | 0.00 | 0.00 | 0.00 | 25 | 1014.4 |
| 20260903210159 | 89 | 135 | 7.0 | 13.0 | 0.00 | 0.00 | 0.00 | 25 | 1014.4 |
| 20260903205759 | 91 | 167 | 6.0 | 0.0 | 0.00 | 0.00 | 0.00 | 25 | 1014.5 |
| 20260903204956 | 91 | 135 | 5.0 | 6.0 | 0.00 | 0.00 | 0.00 | 25 | 1014.5 |
| 20260903204553 | 91 | 198 | 6.0 | 9.0 | 0.00 | 0.00 | 0.00 | 25 | 1014.5 |
| 20260903203751 | 91 | 221 | 5.0 | 8.0 | 0.00 | 0.00 | 0.00 | 25 | 1014.5 |
| 20260903203352 | 91 | 177 | 8.0 | 10.0 | 0.00 | 0.00 | 0.00 | 25 | 1014.5 |
| 20260903202949 | 91 | 191 | 6.0 | 8.0 | 0.00 | 0.00 | 0.00 | 25 | 1014.5 |
| 20260903195738 | 90 | 168 | 6.0 | 7.0 | 0.00 | 0.00 | 0.00 | 26 | 1014.8 |
| 20260903195338 | 89 | 261 | 2.0 | 8.0 | 0.00 | 0.00 | 0.00 | 26 | 1014.8 |
| 20260903194936 | 88 | 103 | 1.0 | 10.0 | 0.00 | 0.00 | 0.00 | 25 | 1014.8 |
| 20260903194536 | 85 | 180 | 5.0 | 7.0 | 0.00 | 0.00 | 0.00 | 26 | 1014.9 |
| 20260903193732 | 86 | 128 | 10.0 | 10.0 | 0.00 | 0.00 | 0.00 | 26 | 1014.9 |
| 20260903192929 | 88 | 184 | 3.0 | 5.0 | 0.00 | 0.00 | 0.00 | 26 | 1015.0 |
| 20260903192528 | 86 | 162 | 1.0 | 9.0 | 0.00 | 0.00 | 0.00 | 26 | 1015.1 |
| 20260903191726 | 86 | 141 | 6.0 | 9.0 | 0.00 | 0.00 | 0.00 | 26 | 1015.2 |
| 20260903191325 | 86 | 180 | 4.0 | 7.0 | 0.00 | 0.00 | 0.00 | 27 | 1015.3 |
| 20260903190922 | 86 | 162 | 2.0 | 9.0 | 0.00 | 0.00 | 0.00 | 27 | 1015.4 |
| 20260903185719 | 85 | 126 | 2.0 | 9.0 | 0.00 | 0.00 | 0.00 | 27 | 1015.5 |
| 20260903185318 | 87 | 187 | 3.0 | 8.0 | 0.00 | 0.00 | 0.00 | 27 | 1015.6 |
| 20260903184919 | 86 | 195 | 7.0 | 7.0 | 0.00 | 0.00 | 0.00 | 28 | 1015.7 |
| 20260903184516 | 85 | 184 | 4.0 | 6.0 | 0.00 | 0.00 | 0.00 | 28 | 1015.6 |
| 20260903184114 | 84 | 7 | 0.0 | 7.0 | 0.00 | 0.00 | 0.00 | 28 | 1015.6 |
| 20260903183714 | 82 | 139 | 8.0 | 12.0 | 0.00 | 0.00 | 0.00 | 1015.7 | |
| 20260903183312 | 82 | 139 | 7.0 | 10.0 | 0.00 | 0.00 | 0.00 | 28 | 1015.8 |
| 20260903182910 | 82 | 151 | 8.0 | 11.0 | 0.00 | 0.00 | 0.00 | 28 | 1015.9 |
| 20260903182107 | 84 | 137 | 11.0 | 11.0 | 0.00 | 0.00 | 0.00 | 29 | 1016.0 |
| 20260903181709 | 83 | 130 | 7.0 | 11.0 | 0.00 | 0.00 | 0.00 | 29 | 1016.1 |
| 20260903181309 | 83 | 130 | 6.0 | 8.0 | 0.00 | 0.00 | 0.00 | 29 | 1016.0 |
| 20260903180101 | 81 | 130 | 5.0 | 7.0 | 0.00 | 0.00 | 0.00 | 30 | 1016.0 |
| 20260903175659 | 81 | 132 | 4.0 | 8.0 | 0.00 | 0.00 | 0.00 | 30 | 1016.1 |
| 20260903175258 | 83 | 114 | 8.0 | 9.0 | 0.00 | 0.00 | 0.00 | 31 | 1016.1 |
| 20260903174857 | 85 | 186 | 2.0 | 7.0 | 0.00 | 0.00 | 0.00 | 31 | 1016.1 |
| 20260903174456 | 85 | 195 | 3.0 | 7.0 | 0.00 | 0.00 | 0.00 | 31 | 1016.1 |
| 20260903174056 | 84 | 221 | 3.0 | 7.0 | 0.00 | 0.00 | 0.00 | 32 | 1016.1 |
| 20260903173656 | 83 | 135 | 3.0 | 8.0 | 0.00 | 0.00 | 0.00 | 32 | 1016.2 |
| 20260903173254 | 82 | 227 | 3.0 | 4.0 | 0.00 | 0.00 | 0.00 | 33 | 1016.2 |
| 20260903172450 | 82 | 108 | 2.0 | 7.0 | 0.00 | 0.00 | 0.00 | 33 | 1016.2 |
| 20260903172048 | 81 | 182 | 7.0 | 7.0 | 0.00 | 0.00 | 0.00 | 34 | 1016.2 |
| 20260903170844 | 78 | 139 | 6.0 | 9.0 | 0.00 | 0.00 | 0.00 | 35 | 1016.3 |
| 20260903170443 | 77 | 137 | 9.0 | 10.0 | 0.00 | 0.00 | 0.00 | 36 | 1016.3 |
| 20260903170042 | 77 | 130 | 5.0 | 11.0 | 0.00 | 0.00 | 0.00 | 36 | 1016.2 |
| 20260903165640 | 79 | 182 | 4.0 | 7.0 | 0.00 | 0.00 | 0.00 | 37 | 1016.2 |
| 20260903165243 | 78 | 140 | 5.0 | 6.0 | 0.00 | 0.00 | 0.00 | 37 | 1016.2 |
| 20260903164838 | 77 | 299 | 1.0 | 4.0 | 0.00 | 0.00 | 0.00 | 37 | 1016.1 |
| 20260903164035 | 76 | 225 | 3.0 | 7.0 | 0.00 | 0.00 | 0.00 | 38 | 1016.1 |
| 20260903163233 | 76 | 171 | 2.0 | 8.0 | 0.00 | 0.00 | 0.00 | 38 | 1016.1 |
| 20260903162832 | 76 | 90 | 7.0 | 7.0 | 0.00 | 0.00 | 0.00 | 39 | 1016.1 |
| 20260903162430 | 76 | 216 | 2.0 | 3.0 | 0.00 | 0.00 | 0.00 | 40 | 1016.2 |
| 20260903162033 | 75 | 146 | 5.0 | 8.0 | 0.00 | 0.00 | 0.00 | 39 | 1016.2 |
| 20260903161226 | 76 | 155 | 1.0 | 3.0 | 0.00 | 0.00 | 0.00 | 40 | 1016.2 |
| 20260903160825 | 75 | 255 | 1.0 | 5.0 | 0.00 | 0.00 | 0.00 | 40 | 1016.2 |
| 20260903160424 | 75 | 135 | 2.0 | 3.0 | 0.00 | 0.00 | 0.00 | 41 | 1016.1 |
| 20260903160023 | 75 | 150 | 2.0 | 6.0 | 0.00 | 0.00 | 0.00 | 41 | 1016.1 |
| 20260903155220 | 73 | 60 | 2.0 | 5.0 | 0.00 | 0.00 | 0.00 | 41 | 1016.1 |
| 20260903154818 | 73 | 141 | 5.0 | 9.0 | 0.00 | 0.00 | 0.00 | 41 | 1016.2 |
| 20260903154016 | 73 | 94 | 2.0 | 5.0 | 0.00 | 0.00 | 0.00 | 42 | 1016.2 |
| 20260903153615 | 74 | 99 | 4.0 | 6.0 | 0.00 | 0.00 | 0.00 | 42 | 1016.3 |
| 20260903153213 | 74 | 157 | 0.0 | 3.0 | 0.00 | 0.00 | 0.00 | 43 | 1016.2 |
| 20260903152812 | 73 | 35 | 0.0 | 1.0 | 0.00 | 0.00 | 0.00 | 43 | 1016.2 |
| 20260903152411 | 72 | 135 | 1.0 | 3.0 | 0.00 | 0.00 | 0.00 | 43 | 1016.1 |
| 20260903152011 | 71 | 135 | 4.0 | 5.0 | 0.00 | 0.00 | 0.00 | 43 | 1016.2 |
| 20260903151609 | 70 | 67 | 2.0 | 5.0 | 0.00 | 0.00 | 0.00 | 43 | 1016.2 |
| 20260903150808 | 69 | 132 | 4.0 | 5.0 | 0.00 | 0.00 | 0.00 | 44 | 1016.1 |
| 20260903150404 | 69 | 162 | 2.0 | 3.0 | 0.00 | 0.00 | 0.00 | 44 | 1016.2 |
| 20260903145202 | 67 | 220 | 1.0 | 5.0 | 0.00 | 0.00 | 0.00 | ||
| 20260903143956 | 66 | 139 | 1.0 | 4.0 | 0.00 | 0.00 | 0.00 | 48 | 1016.0 |
| 20260903142352 | 65 | 137 | 0.0 | 4.0 | 0.00 | 0.00 | 0.00 | 46 | 1015.9 |
| 20260903141950 | 65 | 83 | 3.0 | 4.0 | 0.00 | 0.00 | 0.00 | 45 | 1015.8 |
| 20260903141148 | 64 | 85 | 0.0 | 4.0 | 0.00 | 0.00 | 0.00 | 46 | 1015.8 |
| 20260903140746 | 64 | 135 | 4.0 | 4.0 | 0.00 | 0.00 | 0.00 | 46 | 1015.8 |
| 20260903135141 | 63 | 58 | 1.0 | 1.0 | 0.00 | 0.00 | 0.00 | 45 | 1015.7 |
| 20260903134342 | 62 | 85 | 0.0 | 1.0 | 0.00 | 0.00 | 0.00 | 45 | 1015.5 |
| 20260903133939 | 62 | 83 | 1.0 | 0.0 | 0.00 | 0.00 | 0.00 | 45 | 1015.5 |
| 20260903133135 | 62 | 299 | 0.0 | 0.0 | 0.00 | 0.00 | 0.00 | 45 | 1015.5 |
| 20260903132733 | 62 | 81 | 0.0 | 0.0 | 0.00 | 0.00 | 0.00 | 45 | 1015.5 |
| 20260903132332 | 62 | 83 | 0.0 | 0.0 | 0.00 | 0.00 | 0.00 | 46 | 1015.7 |
| 20260903131932 | 62 | 85 | 0.0 | 1.0 | 0.00 | 0.00 | 0.00 | 46 | 1015.4 |
| 20260903130727 | 61 | 36 | 0.0 | 1.0 | 0.00 | 0.00 | 0.00 | 46 | 1015.6 |
| 20260903130326 | 61 | 35 | 0.0 | 0.0 | 0.00 | 0.00 | 0.00 | 46 | 1015.6 |
| 20260903125926 | 61 | 274 | 0.0 | 0.0 | 0.00 | 0.00 | 0.00 | 46 | 1015.6 |
| 20260903125523 | 61 | 288 | 0.0 | 1.0 | 0.00 | 0.00 | 0.00 | 46 | 1015.6 |
| 20260903125123 | 61 | 265 | 0.0 | 1.0 | 0.00 | 0.00 | 0.00 | 47 | 1015.6 |
| 20260903124721 | 60 | 274 | 0.0 | 1.0 | 0.00 | 0.00 | 0.00 | 46 | 1015.7 |
| 20260903124319 | 60 | 328 | 0.0 | 0.0 | 0.00 | 0.00 | 0.00 | 46 | 1015.7 |
| 20260903123918 | 60 | 337 | 0.0 | 1.0 | 0.00 | 0.00 | 0.00 | 46 | 1015.6 |
| 20260903122715 | 58 | 42 | 0.0 | 1.0 | 0.00 | 0.00 | 0.00 | 46 | 1015.7 |
| 20260903121912 | 58 | 235 | 0.0 | 0.0 | 0.00 | 0.00 | 0.00 | 46 | 1015.6 |
| 20260903121510 | 58 | 288 | 0.0 | 0.0 | 0.00 | 0.00 | 0.00 | 46 | 1015.6 |
| 20260903121109 | 58 | 279 | 0.0 | 0.0 | 0.00 | 0.00 | 0.00 | 46 | 1015.6 |
| 20260903120307 | 58 | 292 | 0.0 | 0.0 | 0.00 | 0.00 | 0.00 | 46 | 1015.6 |
| 20260903115905 | 58 | 274 | 0.0 | 0.0 | 0.00 | 0.00 | 0.00 | 46 | 1015.7 |
| 20260903115103 | 58 | 274 | 0.0 | 0.0 | 0.00 | 0.00 | 0.00 | 46 | 1015.7 |
| 20260903114254 | 58 | 330 | 0.0 | 0.0 | 0.00 | 0.00 | 0.00 | 46 | 1015.7 |
| 20260903113452 | 58 | 292 | 0.0 | 0.0 | 0.00 | 0.00 | 0.00 | 46 | 1015.7 |
| 20260903113053 | 58 | 279 | 0.0 | 0.0 | 0.00 | 0.00 | 0.00 | 46 | 1015.7 |
| 20260903112649 | 58 | 310 | 0.0 | 0.0 | 0.00 | 0.00 | 0.00 | 46 | 1015.7 |
| 20260903112248 | 58 | 283 | 0.0 | 0.0 | 0.00 | 0.00 | 0.00 | 46 | 1015.7 |
| 20260903111847 | 58 | 297 | 0.0 | 0.0 | 0.00 | 0.00 | 0.00 | 46 | 1015.7 |
| 20260903111446 | 58 | 279 | 0.0 | 0.0 | 0.00 | 0.00 | 0.00 | 46 | 1015.7 |
| 20260903110238 | 58 | 231 | 0.0 | 1.0 | 0.00 | 0.00 | 0.00 | 46 | 1015.7 |
| 20260903105836 | 58 | 274 | 0.0 | 1.0 | 0.00 | 0.00 | 0.00 | 45 | 1015.7 |
| 20260903105834 | 58 | 274 | 0.0 | 1.0 | 0.00 | 0.00 | 0.00 | 45 | 1015.7 |
| 20260903105032 | 58 | 279 | 0.0 | 0.0 | 0.00 | 0.00 | 0.00 | 45 | 1015.8 |
| 20260903104631 | 58 | 290 | 0.0 | 0.0 | 0.00 | 0.00 | 0.00 | 45 | 1015.8 |
| 20260903104230 | 98 | 231 | 0.0 | 0.0 | 0.00 | 0.00 | 0.00 | 45 | 1015.9 |
| 20260903104128 | 58 | 202 | 0.0 | 0.0 | 0.00 | 0.00 | 0.00 | 45 | 1015.8 |
| 20260903103828 | 58 | 202 | 0.0 | 0.0 | 0.00 | 0.00 | 0.00 | 45 | 1015.8 |
| 20260903103426 | 58 | 189 | 0.0 | 0.0 | 0.00 | 0.00 | 0.00 | 45 | 1015.8 |
| 20260903103025 | 58 | 184 | 0.0 | 0.0 | 0.00 | 0.00 | 0.00 | 45 | 1015.9 |
| 20260903102624 | 58 | 230 | 0.0 | 0.0 | 0.00 | 0.00 | 0.00 | 45 | 1015.8 |
| 20260903102223 | 58 | 234 | 0.0 | 0.0 | 0.00 | 0.00 | 0.00 | 45 | 1015.8 |
| 20260903101821 | 58 | 230 | 0.0 | 1.0 | 0.00 | 0.00 | 0.00 | 45 | 1015.9 |
| 20260903101019 | 58 | 274 | 1.0 | 1.0 | 0.00 | 0.00 | 0.00 | 45 | 1015.8 |
| 20260903100620 | 58 | 283 | 0.0 | 0.0 | 0.00 | 0.00 | 0.00 | 45 | 1016.0 |
| 20260903100216 | 58 | 227 | 0.0 | 0.0 | 0.00 | 0.00 | 0.00 | 44 | 1015.9 |
| 20260903095815 | 58 | 288 | 0.0 | 0.0 | 0.00 | 0.00 | 0.00 | 44 | 1015.9 |
| 20260903095413 | 58 | 252 | 0.0 | 0.0 | 0.00 | 0.00 | 0.00 | 44 | 1015.9 |
| 20260903094613 | 58 | 283 | 0.0 | 0.0 | 0.00 | 0.00 | 0.00 | 44 | 1015.9 |
| 20260903093407 | 58 | 283 | 0.0 | 1.0 | 0.00 | 0.00 | 0.00 | 44 | 1016.0 |
| 20260903092605 | 59 | 242 | 0.0 | 1.0 | 0.00 | 0.00 | 0.00 | 44 | 1016.1 |